This is the latest recevied weather packets stored in our database for station/object YM2KV-13. If no packets are shown the sender has not sent any weather packets the latest 10 day(s).
| Time | Temp. | Humidity | Pressure | Rain* | Wind** | Luminosity | Snow |
|---|---|---|---|---|---|---|---|
| 1777514900 | 3.33° C | 85% | 1029.3 hPa | - | - | - | - |
| 1777514300 | 3.89° C | 84% | 1029.4 hPa | - | - | - | - |
| 1777513700 | 3.89° C | 84% | 1029.2 hPa | - | - | - | - |
| 1777513100 | 4.44° C | 84% | 1029.2 hPa | - | - | - | - |
| 1777512500 | 4.44° C | 85% | 1029.2 hPa | - | - | - | - |
| 1777511900 | 3.89° C | 86% | 1029.4 hPa | - | - | - | - |
| 1777510100 | 3.89° C | 85% | 1029 hPa | - | - | - | - |
| 1777509500 | 3.89° C | 85% | 1029.1 hPa | - | - | - | - |
| 1777508900 | 3.89° C | 84% | 1029.4 hPa | - | - | - | - |
| 1777508300 | 4.44° C | 83% | 1029.3 hPa | - | - | - | - |
| 1777507100 | 4.44° C | 83% | 1029.5 hPa | - | - | - | - |
| 1777505300 | 5° C | 83% | 1029.7 hPa | - | - | - | - |
| 1777503500 | 5° C | 83% | 1029.8 hPa | - | - | - | - |
| 1777502900 | 5° C | 82% | 1029.9 hPa | - | - | - | - |
| 1777502300 | 5.56° C | 83% | 1030 hPa | - | - | - | - |
| 1777501700 | 5.56° C | 83% | 1030 hPa | - | - | - | - |
| 1777501100 | 5.56° C | 84% | 1030 hPa | - | - | - | - |
| 1777500500 | 5.56° C | 85% | 1030.1 hPa | - | - | - | - |
| 1777499900 | 5.56° C | 85% | 1030 hPa | - | - | - | - |
| 1777499300 | 5.56° C | 84% | 1030 hPa | - | - | - | - |
| 1777498699 | 5.56° C | 85% | 1030.1 hPa | - | - | - | - |
| 1777498100 | 5.56° C | 84% | 1030.1 hPa | - | - | - | - |
| 1777497500 | 5.56° C | 84% | 1030.1 hPa | - | - | - | - |
| 1777496900 | 5.56° C | 84% | 1030 hPa | - | - | - | - |
| 1777496300 | 6.11° C | 83% | 1030 hPa | - | - | - | - |
* Rain since midnight (hover to see other rain measurements)
** Current wind speed in m/s (hover to see current wind gust speed)